sat.trackr.live / text

‹ back to catalog

STARLINK-4090

NORAD 53165 · 2022-083AK

PAYLOAD ACTIVE UNKNOWN

§ Identity

Operator
Country
US
Launch date
2022-07-17
Launch site
AFETR
Launch vehicle
Mass (kg)
RCS (m²)

Purposes: comms

External: N2YO · Heavens-Above · Gunter

§ Orbital elements

Epoch: 2026-09-19T22:41:42.068256Z

Period
93.79 min
Inclination
53.1614°
Eccentricity
0.0001054
Mean motion
15.35399459 rev/d
Perigee alt
459.0 km
Apogee alt
460.5 km
Semi-major
6,837.9 km
B*
7.7558e-5
RAAN
6.2648°
Arg perigee
87.7374°
Mean anomaly
272.3750°
Rev number
23,076

§ Raw data

STARLINK-40901 53165U 22083AK  26262.94562579  .00002326  00000+0  77558-4 0  99982 53165  53.1614   6.2648 0001054  87.7374 272.3750 15.35399459230761

JSON: /api/v1/satellites/53165 · /tle

For live sub-satellite position, see the globe view (requires WebGL).

§ Visibility from observer

Set your observer location to see the next 7 days of passes ≥ 10°. The values pass through the URL so the page stays shareable.

No JS? Fill the form by hand. The geolocation button needs JavaScript.